EW3845 Weather Reports


Display with metric or nautical units.
time (UTC)temp
F
wind
direction
speed
MPH
gust
MPH
rain 1hr
in
rain 24hr
in
rain mn
in
humidity
%
barometer
mb
20260508210052 55 27 0.0 0.0 0.00 0.00 0.00 75 1017.8
20260508204555 56 19 0.0 0.0 0.00 0.00 0.00 74 1017.7
20260508203050 56 29 0.0 0.0 0.00 0.00 0.00 73 1017.6
20260508201549 55 22 0.0 0.0 0.00 0.00 0.00 74 1017.5
20260508200106 55 22 0.0 0.0 0.00 0.00 0.00 73 1017.4
20260508194549 56 22 0.0 0.0 0.00 0.00 0.00 72 1017.4
20260508193119 57 22 0.0 0.0 0.00 0.00 0.00 72 1017.3
20260508191645 58 22 0.0 0.0 0.00 0.00 0.00 71 1017.1
20260508191545 58 22 0.0 0.0 0.00 0.00 0.00 71 1017.1
20260508191052 58 22 0.0 0.0 0.00 0.00 0.00 70 1017.1
20260508190606 59 22 0.0 0.0 0.00 0.00 0.00 70 1017.0
20260508190054 59 22 0.0 0.0 0.00 0.00 0.00 69 1017.0
20260508190012 59 22 0.0 0.0 0.00 0.00 0.00 69 1016.9
20260508185605 59 22 0.0 0.0 0.00 0.00 0.00 69 1016.9
20260508185049 60 22 0.0 0.0 0.00 0.00 0.00 68 1016.9
20260508184601 60 22 0.0 0.0 0.00 0.00 0.00 68 1016.8
20260508184050 60 22 0.0 0.0 0.00 0.00 0.00 67 1016.8
20260508183002 60 22 0.0 0.0 0.00 0.00 0.00 66 1016.6
20260508182600 61 22 0.0 0.0 0.00 0.00 0.00 65 1016.7
20260508182047 61 22 0.0 0.0 0.00 0.00 0.00 65 1016.6
20260508181600 61 22 0.0 0.0 0.00 0.00 0.00 64 1016.6
20260508181049 61 22 0.0 0.0 0.00 0.00 0.00 64 1016.6
20260508180601 61 22 0.0 0.0 0.00 0.00 0.00 64 1016.6
20260508180145 61 22 0.0 0.0 0.00 0.00 0.00 64 1016.5
20260508180044 62 22 0.0 0.0 0.00 0.00 0.00 64 1016.5
20260508175556 62 22 0.0 0.0 0.00 0.00 0.00 63 1016.4
20260508175105 62 22 0.0 0.0 0.00 0.00 0.00 62 1016.4
20260508174658 62 22 0.0 0.0 0.00 0.00 0.00 61 1016.4
20260508174555 62 22 0.0 0.0 0.00 0.00 0.00 61 1016.5
20260508174042 62 22 0.0 0.0 0.00 0.00 0.00 60 1016.4
20260508173555 63 22 0.0 0.0 0.00 0.00 0.00 60 1016.4
20260508173144 62 22 0.0 0.0 0.00 0.00 0.00 59 1016.3
20260508173042 63 22 0.0 0.0 0.00 0.00 0.00 59 1016.4
20260508172555 63 22 0.0 0.0 0.00 0.00 0.00 60 1016.3
20260508172040 63 20 0.0 0.0 0.00 0.00 0.00 59 1016.2
20260508171554 63 22 0.0 0.0 0.00 0.00 0.00 59 1016.2
20260508171501 63 22 0.0 0.0 0.00 0.00 0.00 59 1016.2
20260508171100 63 22 0.0 0.0 0.00 0.00 0.00 58 1016.2
20260508170609 63 22 0.0 0.0 0.00 0.00 0.00 58 1016.2
20260508170156 63 21 0.0 0.0 0.00 0.00 0.00 59 1016.1
20260508170054 63 21 0.0 0.0 0.00 0.00 0.00 59 1016.2
20260508165544 63 20 0.0 0.0 0.00 0.00 0.00 58 1016.2
20260508165054 63 26 0.0 0.0 0.00 0.00 0.00 56 1016.2
20260508164528 63 24 0.0 0.0 0.00 0.00 0.00 56 1016.1
20260508163028 63 27 0.0 0.0 0.00 0.00 0.00 56 1016.1
20260508161526 64 19 0.0 0.0 0.00 0.00 0.00 57 1016.2
20260508160026 64 25 0.0 0.0 0.00 0.00 0.00 56 1016.3
20260508154541 64 28 0.0 0.0 0.00 0.00 0.00 56 1016.3
20260508153025 65 29 0.0 0.0 0.00 0.00 0.00 56 1016.4
20260508151524 65 42 0.0 0.0 0.00 0.00 0.00 58 1016.4
20260508150031 64 26 0.0 0.0 0.00 0.00 0.00 59 1016.5
20260508144523 64 28 0.0 0.0 0.00 0.00 0.00 59 1016.5
20260508143023 64 24 0.0 0.0 0.00 0.00 0.00 57 1016.7
20260508141529 64 23 0.0 0.0 0.00 0.00 0.00 59 1016.7
20260508140022 64 28 0.0 0.0 0.00 0.00 0.00 60 1016.8
20260508134521 64 28 0.0 0.0 0.00 0.00 0.00 60 1016.9
20260508133039 65 25 0.0 0.0 0.00 0.00 0.00 60 1016.8
20260508131520 66 18 0.0 0.0 0.00 0.00 0.00 57 1016.8
20260508130022 67 32 0.0 0.0 0.00 0.00 0.00 60 1016.8
20260508124524 66 23 0.0 0.0 0.00 0.00 0.00 57 1016.9
20260508123031 67 32 0.0 0.0 0.00 0.00 0.00 59 1016.9
20260508121520 65 29 0.0 0.0 0.00 0.00 0.00 62 1016.9
20260508120018 63 42 0.0 0.0 0.00 0.00 0.00 63 1016.9
20260508114516 64 42 0.0 0.0 0.00 0.00 0.00 58 1017.0
20260508113020 65 44 0.0 0.0 0.00 0.00 0.00 60 1016.9
20260508111515 67 46 0.0 0.0 0.00 0.00 0.00 61 1017.0
20260508110013 67 46 0.0 0.0 0.00 0.00 0.00 62 1017.0
20260508104509 66 61 0.0 0.0 0.00 0.00 0.00 62 1017.1
20260508103008 65 156 0.0 0.0 0.00 0.00 0.00 62 1017.1
20260508101505 64 11 0.0 0.0 0.00 0.00 0.00 66 1017.1
20260508100112 62 39 0.0 0.0 0.00 0.00 0.00 68 1017.2
20260508094607 62 142 0.0 0.0 0.00 0.00 0.00 70 1017.3
20260508093055 61 22 0.0 0.0 0.00 0.00 0.00 74 1017.3
20260508092053 61 24 0.0 0.0 0.00 0.00 0.00 78 1017.3
20260508091545 60 26 0.0 0.0 0.00 0.00 0.00 77 1017.3
20260508091040 60 22 0.0 0.0 0.00 0.00 0.00 79 1017.4
20260508090552 59 49 0.0 0.0 0.00 0.00 0.00 79 1017.4
20260508090158 58 22 0.0 0.0 0.00 0.00 0.00 81 1017.3
20260508090058 59 20 0.0 0.0 0.00 0.00 0.00 81 1017.4
20260508085551 58 29 0.0 0.0 0.00 0.00 0.00 82 1017.4
20260508085059 58 172 0.0 0.0 0.00 0.00 0.00 83 1017.4
20260508084653 57 23 0.0 0.0 0.00 0.00 0.00 84 1017.3
20260508084552 57 11 0.0 0.0 0.00 0.00 0.00 84 1017.4
20260508083057 55 15 0.0 0.0 0.00 0.00 0.00 85 1017.4
20260508081605 55 139 0.0 0.0 0.00 0.00 0.00 86 1017.3
20260508080052 54 27 0.0 0.0 0.00 0.00 0.00 87 1017.3
20260508074550 53 158 0.0 0.0 0.00 0.00 0.00 89 1017.4
20260508073104 52 146 0.0 0.0 0.00 0.00 0.00 90 1017.4
20260508071547 51 32 0.0 0.0 0.00 0.00 0.00 90 1017.4
20260508070048 51 31 0.0 0.0 0.00 0.00 0.00 90 1017.2
20260508064547 50 51 0.0 0.0 0.00 0.00 0.00 91 1017.1
20260508063043 50 22 0.0 0.0 0.00 0.00 0.00 91 1016.9
20260508061543 49 47 0.0 0.0 0.00 0.00 0.00 91 1016.8
20260508060058 49 44 0.0 0.0 0.00 0.00 0.00 91 1016.7
20260508054539 48 68 0.0 0.0 0.00 0.00 0.00 91 1016.8
20260508053037 48 68 0.0 0.0 0.00 0.00 0.00 91 1016.6
20260508051545 48 32 0.0 0.0 0.00 0.00 0.00 91 1016.7
20260508050036 48 9 0.0 0.0 0.00 0.00 0.00 91 1016.4
20260508044538 48 38 0.0 0.0 0.00 0.00 0.00 91 1016.3
20260508043034 47 39 0.0 0.0 0.00 0.00 0.00 91 1016.3
20260508041533 47 112 0.0 0.0 0.00 0.00 0.00 90 1016.3
20260508040045 47 30 0.0 0.0 0.00 0.00 0.00 90 1016.2
20260508034543 47 24 0.0 0.0 0.00 0.00 0.00 90 1016.3
20260508033032 47 19 0.0 0.0 0.00 0.00 0.00 90 1016.2
20260508031536 47 19 0.0 0.0 0.00 0.00 0.00 90 1016.1
20260508030031 47 19 0.0 0.0 0.00 0.00 0.00 90 1016.1
20260508024552 47 19 0.0 0.0 0.00 0.00 0.00 90 1016.1
20260508023030 47 19 0.0 0.0 0.00 0.00 0.00 89 1016.2
20260508021529 47 19 0.0 0.0 0.00 0.00 0.00 89 1016.1
20260508020029 48 19 0.0 0.0 0.00 0.00 0.00 89 1016.1
20260508014527 48 19 0.0 0.0 0.00 0.00 0.00 89 1016.2
20260508013032 48 19 0.0 0.0 0.00 0.00 0.00 88 1016.1
20260508011530 48 19 0.0 0.0 0.00 0.00 0.00 87 1016.2
20260508010023 48 19 0.0 0.0 0.00 0.00 0.00 87 1016.2
20260508004537 49 19 0.0 0.0 0.00 0.00 0.00 86 1016.2
20260508003019 49 19 0.0 0.0 0.00 0.00 0.00 86 1016.2
20260508001529 50 19 0.0 0.0 0.00 0.00 0.00 86 1016.3
20260508000016 50 19 0.0 0.0 0.00 0.00 0.00 85 1016.4
20260507234515 50 19 0.0 0.0 0.00 0.00 0.00 85 1016.4
20260507233013 50 19 0.0 0.0 0.00 0.00 0.00 84 1016.5
20260507231512 50 19 0.0 0.0 0.00 0.00 0.00 83 1016.5
20260507230010 51 19 0.0 0.0 0.00 0.00 0.00 82 1016.4
20260507224512 51 19 0.0 0.0 0.00 0.00 0.00 82 1016.4
20260507223007 52 19 0.0 0.0 0.00 0.00 0.00 81 1016.3
20260507221506 52 19 0.0 0.0 0.00 0.00 0.00 80 1016.4
20260507220004 52 19 0.0 0.0 0.00 0.00 0.00 78 1016.3
20260507214503 53 19 0.0 0.0 0.00 0.00 0.00 78 1016.4
20260507213002 53 19 0.0 0.0 0.00 0.00 0.00 77 1016.2
20260507211649 54 19 0.0 0.0 0.00 0.00 0.00 76 1016.2
20260507211548 54 19 0.0 0.0 0.00 0.00 0.00 76 1016.2
20260507211056 54 19 0.0 0.0 0.00 0.00 0.00 76 1016.2
20260507210607 55 19 0.0 0.0 0.00 0.00 0.00 75 1016.2